Location: Pedimozza
(42.0500°N, 9.3500°E)
Time: 22:18:46
(UTC+00:00)

MOS 1 Rocket - Pass Details

Date: 19 August 2019
Orbit: 615 x 829 km, 97.4° (Epoch: 22 September)

Event Time Altitude Azimuth Distance (km) Brightness Sun altitude
Rises 21:14:21 0° 11° (NNE) 3,323 7.4 -27.5°
Reaches altitude 10° 21:16:41 10° 12° (NNE) 2,408 6.5 -27.7°
Enters shadow 21:21:46 80° 12° (NNE) 843 3.6 -28.3°
